Time,TemperatureF,DewpointF,PressureIn,WindDirection,WindDirectionDegrees,WindSpeedMPH,WindSpeedGustMPH,Humidity,HourlyPrecipIn,Conditions,Clouds,dailyrainin,SoftwareType,DateUTC
2013-07-01 00:00:00,58.4,53.3,30.02,NE,45,0.0,19.0,83,0.00,,,0.00,Wunderground v.1.15,2013-07-01 05:00:00,
2013-07-01 00:04:00,58.9,53.4,30.02,NE,45,0.0,19.0,82,0.00,,,0.00,Wunderground v.1.15,2013-07-01 05:04:00,
2013-07-01 00:06:00,59.1,52.9,30.02,NE,45,0.0,19.0,80,0.00,,,0.00,Wunderground v.1.15,2013-07-01 05:06:00,
2013-07-01 00:08:00,59.3,53.1,30.02,NE,45,0.0,19.0,80,0.00,,,0.00,Wunderground v.1.15,2013-07-01 05:08:00,
2013-07-01 00:11:00,59.1,53.3,30.02,NE,44,0.0,0.0,81,0.00,,,0.00,Wunderground v.1.15,2013-07-01 05:11:00,
2013-07-01 00:14:00,58.8,53.0,30.02,NE,44,0.0,0.0,81,0.00,,,0.00,Wunderground v.1.15,2013-07-01 05:14:00,
2013-07-01 00:18:00,58.3,52.8,30.03,NE,44,0.0,0.0,82,0.00,,,0.00,Wunderground v.1.15,2013-07-01 05:18:00,
2013-07-01 00:22:00,57.8,52.7,30.03,NE,46,0.0,0.0,83,0.00,,,0.00,Wunderground v.1.15,2013-07-01 05:22:00,
2013-07-01 00:24:00,57.6,52.5,30.03,NE,46,0.0,0.0,83,0.00,,,0.00,Wunderground v.1.15,2013-07-01 05:24:00,
2013-07-01 00:28:00,57.6,52.8,30.03,NE,47,0.0,0.0,84,0.00,,,0.00,Wunderground v.1.15,2013-07-01 05:28:00,
2013-07-01 00:29:00,57.6,52.8,30.03,NE,46,0.0,0.0,84,0.00,,,0.00,Wunderground v.1.15,2013-07-01 05:29:00,
2013-07-01 00:31:00,57.6,52.8,30.03,NE,46,0.0,0.0,84,0.00,,,0.00,Wunderground v.1.15,2013-07-01 05:31:00,
2013-07-01 00:36:00,57.5,52.4,30.03,NE,47,0.0,0.0,83,0.00,,,0.00,Wunderground v.1.15,2013-07-01 05:36:00,
2013-07-01 00:40:00,57.2,52.1,30.03,NE,47,0.0,0.0,83,0.00,,,0.00,Wunderground v.1.15,2013-07-01 05:40:00,
2013-07-01 00:42:00,57.0,52.2,30.03,NE,47,0.0,0.0,84,0.00,,,0.00,Wunderground v.1.15,2013-07-01 05:42:00,
2013-07-01 00:44:00,56.9,52.1,30.03,NE,46,0.0,0.0,84,0.00,,,0.00,Wunderground v.1.15,2013-07-01 05:44:00,
2013-07-01 00:50:00,56.7,52.9,30.03,NE,46,0.0,0.0,87,0.00,,,0.00,Wunderground v.1.15,2013-07-01 05:50:00,
2013-07-01 00:53:00,57.0,53.2,30.03,NE,46,0.0,0.0,87,0.00,,,0.00,Wunderground v.1.15,2013-07-01 05:53:00,
2013-07-01 00:56:00,57.2,53.0,30.03,NE,47,0.0,0.0,86,0.00,,,0.00,Wunderground v.1.15,2013-07-01 05:56:00,
2013-07-01 01:00:00,57.1,53.0,30.03,NE,46,0.0,0.0,86,0.00,,,0.00,Wunderground v.1.15,2013-07-01 06:00:00,
2013-07-01 01:02:00,57.0,53.2,30.03,NE,46,0.0,0.0,87,0.00,,,0.00,Wunderground v.1.15,2013-07-01 06:02:00,
2013-07-01 01:06:00,57.0,53.2,30.04,NE,46,0.0,0.0,87,0.00,,,0.00,Wunderground v.1.15,2013-07-01 06:06:00,
2013-07-01 01:10:00,56.7,52.6,30.04,NE,46,0.0,0.0,86,0.00,,,0.00,Wunderground v.1.15,2013-07-01 06:10:00,
2013-07-01 01:12:00,56.6,52.5,30.04,NE,46,0.0,0.0,86,0.00,,,0.00,Wunderground v.1.15,2013-07-01 06:12:00,
2013-07-01 01:15:00,56.4,52.9,30.04,NE,46,0.0,0.0,88,0.00,,,0.00,Wunderground v.1.15,2013-07-01 06:15:00,
2013-07-01 01:18:00,56.4,52.9,30.04,NE,47,0.0,0.0,88,0.00,,,0.00,Wunderground v.1.15,2013-07-01 06:18:00,
2013-07-01 01:20:00,56.4,52.9,30.04,NE,46,0.0,0.0,88,0.00,,,0.00,Wunderground v.1.15,2013-07-01 06:20:00,
2013-07-01 01:22:00,56.4,52.9,30.04,NE,47,0.0,0.0,88,0.00,,,0.00,Wunderground v.1.15,2013-07-01 06:22:00,
2013-07-01 01:24:00,56.3,52.8,30.04,NE,46,0.0,0.0,88,0.00,,,0.00,Wunderground v.1.15,2013-07-01 06:24:00,
2013-07-01 01:26:00,56.4,52.9,30.04,NE,46,0.0,0.0,88,0.00,,,0.00,Wunderground v.1.15,2013-07-01 06:26:00,
2013-07-01 01:28:00,56.4,52.9,30.04,NE,47,0.0,0.0,88,0.00,,,0.00,Wunderground v.1.15,2013-07-01 06:28:00,
2013-07-01 01:32:00,56.2,52.7,30.03,NE,46,0.0,0.0,88,0.00,,,0.00,Wunderground v.1.15,2013-07-01 06:32:00,
2013-07-01 01:33:00,56.1,52.6,30.03,NE,46,0.0,0.0,88,0.00,,,0.00,Wunderground v.1.15,2013-07-01 06:33:00,
2013-07-01 01:35:00,56.1,52.9,30.03,NE,47,0.0,0.0,89,0.00,,,0.00,Wunderground v.1.15,2013-07-01 06:35:00,
2013-07-01 01:38:00,56.0,52.8,30.03,NE,46,0.0,0.0,89,0.00,,,0.00,Wunderground v.1.15,2013-07-01 06:38:00,
2013-07-01 01:42:00,55.8,52.9,30.03,NE,47,0.0,0.0,90,0.00,,,0.00,Wunderground v.1.15,2013-07-01 06:42:00,
2013-07-01 01:44:00,55.6,52.7,30.04,NE,46,0.0,0.0,90,0.00,,,0.00,Wunderground v.1.15,2013-07-01 06:44:00,
2013-07-01 01:46:00,55.5,52.6,30.04,NE,46,0.0,0.0,90,0.00,,,0.00,Wunderground v.1.15,2013-07-01 06:46:00,
2013-07-01 01:52:00,55.1,52.5,30.04,NE,46,0.0,0.0,91,0.00,,,0.00,Wunderground v.1.15,2013-07-01 06:52:00,
2013-07-01 01:54:00,55.1,52.5,30.04,NE,47,0.0,0.0,91,0.00,,,0.00,Wunderground v.1.15,2013-07-01 06:54:00,
2013-07-01 01:58:00,55.1,53.1,30.04,NE,45,0.0,0.0,93,0.00,,,0.00,Wunderground v.1.15,2013-07-01 06:58:00,
2013-07-01 02:00:00,55.1,53.1,30.04,NE,47,0.0,0.0,93,0.00,,,0.00,Wunderground v.1.15,2013-07-01 07:00:00,
2013-07-01 02:02:00,55.1,53.1,30.04,NE,46,0.0,0.0,93,0.00,,,0.00,Wunderground v.1.15,2013-07-01 07:02:00,
2013-07-01 02:03:00,55.1,53.1,30.04,NE,47,0.0,0.0,93,0.00,,,0.00,Wunderground v.1.15,2013-07-01 07:03:00,
2013-07-01 02:08:00,55.1,53.1,30.04,NE,46,0.0,0.0,93,0.00,,,0.00,Wunderground v.1.15,2013-07-01 07:08:00,
2013-07-01 02:12:00,55.0,52.7,30.04,NE,46,0.0,0.0,92,0.00,,,0.00,Wunderground v.1.15,2013-07-01 07:12:00,
2013-07-01 02:14:00,54.9,52.6,30.04,NE,46,0.0,0.0,92,0.00,,,0.00,Wunderground v.1.15,2013-07-01 07:14:00,
2013-07-01 02:18:00,54.7,52.4,30.04,NE,46,0.0,0.0,92,0.00,,,0.00,Wunderground v.1.15,2013-07-01 07:18:00,
2013-07-01 02:20:00,54.6,52.3,30.04,NE,46,0.0,0.0,92,0.00,,,0.00,Wunderground v.1.15,2013-07-01 07:20:00,
2013-07-01 02:24:00,54.5,52.5,30.04,NE,47,0.0,0.0,93,0.00,,,0.00,Wunderground v.1.15,2013-07-01 07:24:00,
2013-07-01 02:25:00,54.5,52.5,30.04,NE,46,0.0,0.0,93,0.00,,,0.00,Wunderground v.1.15,2013-07-01 07:25:00,
2013-07-01 02:32:00,54.7,53.0,30.04,NE,47,0.0,0.0,94,0.00,,,0.00,Wunderground v.1.15,2013-07-01 07:32:00,
2013-07-01 02:34:00,54.8,52.8,30.04,NE,47,0.0,0.0,93,0.00,,,0.00,Wunderground v.1.15,2013-07-01 07:34:00,
2013-07-01 02:36:00,54.9,52.9,30.04,NE,46,0.0,0.0,93,0.00,,,0.00,Wunderground v.1.15,2013-07-01 07:36:00,
2013-07-01 02:40:00,55.2,53.2,30.04,NE,46,0.0,0.0,93,0.00,,,0.00,Wunderground v.1.15,2013-07-01 07:40:00,
2013-07-01 02:42:00,55.5,53.5,30.04,NE,46,0.0,0.0,93,0.00,,,0.00,Wunderground v.1.15,2013-07-01 07:42:00,
2013-07-01 02:44:00,55.6,53.3,30.04,NE,46,0.0,0.0,92,0.00,,,0.00,Wunderground v.1.15,2013-07-01 07:44:00,
2013-07-01 02:46:00,55.6,53.0,30.04,NE,46,0.0,0.0,91,0.00,,,0.00,Wunderground v.1.15,2013-07-01 07:46:00,
2013-07-01 02:47:00,55.6,53.0,30.04,NE,47,0.0,0.0,91,0.00,,,0.00,Wunderground v.1.15,2013-07-01 07:47:00,
2013-07-01 02:49:00,55.5,52.9,30.04,NE,46,0.0,0.0,91,0.00,,,0.00,Wunderground v.1.15,2013-07-01 07:49:00,
2013-07-01 02:54:00,55.3,52.7,30.04,NE,46,0.0,0.0,91,0.00,,,0.00,Wunderground v.1.15,2013-07-01 07:54:00,
2013-07-01 02:56:00,55.1,52.5,30.05,NE,46,0.0,0.0,91,0.00,,,0.00,Wunderground v.1.15,2013-07-01 07:56:00,
2013-07-01 03:00:00,54.8,51.9,30.04,NE,47,0.0,0.0,90,0.00,,,0.00,Wunderground v.1.15,2013-07-01 08:00:00,
2013-07-01 03:02:00,54.6,51.7,30.04,NE,46,0.0,0.0,90,0.00,,,0.00,Wunderground v.1.15,2013-07-01 08:02:00,
2013-07-01 03:06:00,54.3,51.7,30.05,NE,46,0.0,0.0,91,0.00,,,0.00,Wunderground v.1.15,2013-07-01 08:06:00,
2013-07-01 03:09:00,54.1,51.8,30.04,NE,46,0.0,0.0,92,0.00,,,0.00,Wunderground v.1.15,2013-07-01 08:09:00,
2013-07-01 03:12:00,54.1,51.8,30.04,NE,46,0.0,0.0,92,0.00,,,0.00,Wunderground v.1.15,2013-07-01 08:12:00,
2013-07-01 03:16:00,53.8,51.2,30.05,NE,47,0.0,0.0,91,0.00,,,0.00,Wunderground v.1.15,2013-07-01 08:16:00,
2013-07-01 03:18:00,53.7,51.1,30.05,NE,46,0.0,0.0,91,0.00,,,0.00,Wunderground v.1.15,2013-07-01 08:18:00,
2013-07-01 03:20:00,53.6,51.3,30.05,NE,47,0.0,0.0,92,0.00,,,0.00,Wunderground v.1.15,2013-07-01 08:20:00,
2013-07-01 03:22:00,53.6,51.6,30.05,NE,47,0.0,0.0,93,0.00,,,0.00,Wunderground v.1.15,2013-07-01 08:22:00,
2013-07-01 03:26:00,53.7,52.0,30.05,NE,46,0.0,0.0,94,0.00,,,0.00,Wunderground v.1.15,2013-07-01 08:26:00,
2013-07-01 03:28:00,53.8,52.1,30.04,NE,47,0.0,0.0,94,0.00,,,0.00,Wunderground v.1.15,2013-07-01 08:28:00,
2013-07-01 03:31:00,54.1,52.4,30.05,NE,46,0.0,0.0,94,0.00,,,0.00,Wunderground v.1.15,2013-07-01 08:31:00,
2013-07-01 03:34:00,54.1,52.1,30.04,NE,46,0.0,0.0,93,0.00,,,0.00,Wunderground v.1.15,2013-07-01 08:34:00,
2013-07-01 03:38:00,54.0,51.7,30.05,NE,46,0.0,0.0,92,0.00,,,0.00,Wunderground v.1.15,2013-07-01 08:38:00,
2013-07-01 03:40:00,54.0,51.7,30.05,NE,46,0.0,0.0,92,0.00,,,0.00,Wunderground v.1.15,2013-07-01 08:40:00,
2013-07-01 03:42:00,53.9,51.6,30.05,NE,47,0.0,0.0,92,0.00,,,0.00,Wunderground v.1.15,2013-07-01 08:42:00,
2013-07-01 03:44:00,53.9,51.6,30.05,NE,46,0.0,0.0,92,0.00,,,0.00,Wunderground v.1.15,2013-07-01 08:44:00,
2013-07-01 03:48:00,53.7,51.7,30.05,NE,46,0.0,0.0,93,0.00,,,0.00,Wunderground v.1.15,2013-07-01 08:48:00,
2013-07-01 03:50:00,53.7,51.7,30.04,NE,46,0.0,0.0,93,0.00,,,0.00,Wunderground v.1.15,2013-07-01 08:50:00,
2013-07-01 03:53:00,53.5,51.5,30.04,NE,47,0.0,0.0,93,0.00,,,0.00,Wunderground v.1.15,2013-07-01 08:53:00,
2013-07-01 03:56:00,53.4,51.4,30.05,NE,46,0.0,0.0,93,0.00,,,0.00,Wunderground v.1.15,2013-07-01 08:56:00,
2013-07-01 03:58:00,53.3,51.3,30.05,NE,46,0.0,0.0,93,0.00,,,0.00,Wunderground v.1.15,2013-07-01 08:58:00,
2013-07-01 04:02:00,53.3,51.6,30.05,NE,43,0.0,0.0,94,0.00,,,0.00,Wunderground v.1.15,2013-07-01 09:02:00,
2013-07-01 04:04:00,53.3,51.6,30.05,NE,43,0.0,0.0,94,0.00,,,0.00,Wunderground v.1.15,2013-07-01 09:04:00,
2013-07-01 04:06:00,53.4,51.7,30.05,NE,43,0.0,0.0,94,0.00,,,0.00,Wunderground v.1.15,2013-07-01 09:06:00,
2013-07-01 04:10:00,53.4,51.7,30.05,NE,43,0.0,0.0,94,0.00,,,0.00,Wunderground v.1.15,2013-07-01 09:10:00,
2013-07-01 04:11:00,53.5,51.8,30.05,NE,43,0.0,0.0,94,0.00,,,0.00,Wunderground v.1.15,2013-07-01 09:11:00,
2013-07-01 04:13:00,53.5,51.8,30.05,NE,42,0.0,0.0,94,0.00,,,0.00,Wunderground v.1.15,2013-07-01 09:13:00,
2013-07-01 04:16:00,53.6,51.9,30.05,NE,43,0.0,0.0,94,0.00,,,0.00,Wunderground v.1.15,2013-07-01 09:16:00,
2013-07-01 04:18:00,53.6,51.9,30.05,NE,43,0.0,0.0,94,0.00,,,0.00,Wunderground v.1.15,2013-07-01 09:18:00,
2013-07-01 04:20:00,53.6,51.9,30.05,NE,42,0.0,0.0,94,0.00,,,0.00,Wunderground v.1.15,2013-07-01 09:20:00,
2013-07-01 04:22:00,53.5,51.5,30.05,NE,43,0.0,0.0,93,0.00,,,0.00,Wunderground v.1.15,2013-07-01 09:22:00,
2013-07-01 04:28:00,53.4,51.7,30.05,NE,42,0.0,0.0,94,0.00,,,0.00,Wunderground v.1.15,2013-07-01 09:28:00,
2013-07-01 04:32:00,53.4,51.7,30.05,NE,43,0.0,0.0,94,0.00,,,0.00,Wunderground v.1.15,2013-07-01 09:32:00,
2013-07-01 04:33:00,53.4,51.7,30.05,NE,43,0.0,0.0,94,0.00,,,0.00,Wunderground v.1.15,2013-07-01 09:33:00,
2013-07-01 04:35:00,53.4,51.7,30.06,NE,43,0.0,0.0,94,0.00,,,0.00,Wunderground v.1.15,2013-07-01 09:35:00,
2013-07-01 04:38:00,53.5,51.8,30.05,NE,43,0.0,0.0,94,0.00,,,0.00,Wunderground v.1.15,2013-07-01 09:38:00,
2013-07-01 04:40:00,53.5,51.8,30.06,NE,43,0.0,0.0,94,0.00,,,0.00,Wunderground v.1.15,2013-07-01 09:40:00,
2013-07-01 04:42:00,53.5,51.8,30.06,NE,43,0.0,0.0,94,0.00,,,0.00,Wunderground v.1.15,2013-07-01 09:42:00,
2013-07-01 04:44:00,53.5,51.8,30.06,NE,43,0.0,0.0,94,0.00,,,0.00,Wunderground v.1.15,2013-07-01 09:44:00,
2013-07-01 04:46:00,53.5,51.8,30.06,NE,43,0.0,0.0,94,0.00,,,0.00,Wunderground v.1.15,2013-07-01 09:46:00,
2013-07-01 04:48:00,53.5,51.8,30.06,NE,43,0.0,0.0,94,0.00,,,0.00,Wunderground v.1.15,2013-07-01 09:48:00,
2013-07-01 04:50:00,53.5,51.8,30.06,NE,43,0.0,0.0,94,0.00,,,0.00,Wunderground v.1.15,2013-07-01 09:50:00,
2013-07-01 04:52:00,53.6,51.9,30.06,NE,42,0.0,0.0,94,0.00,,,0.00,Wunderground v.1.15,2013-07-01 09:52:00,
2013-07-01 04:54:00,53.6,51.9,30.06,NE,43,0.0,0.0,94,0.00,,,0.00,Wunderground v.1.15,2013-07-01 09:54:00,
2013-07-01 04:55:00,53.6,51.9,30.06,NE,43,0.0,0.0,94,0.00,,,0.00,Wunderground v.1.15,2013-07-01 09:55:00,
2013-07-01 05:02:00,53.6,51.9,30.06,NE,43,0.0,0.0,94,0.00,,,0.00,Wunderground v.1.15,2013-07-01 10:02:00,
2013-07-01 05:04:00,53.6,51.6,30.06,NE,43,0.0,0.0,93,0.00,,,0.00,Wunderground v.1.15,2013-07-01 10:04:00,
2013-07-01 05:06:00,53.5,51.5,30.06,NE,43,0.0,0.0,93,0.00,,,0.00,Wunderground v.1.15,2013-07-01 10:06:00,
2013-07-01 05:08:00,53.4,51.4,30.06,NE,42,0.0,0.0,93,0.00,,,0.00,Wunderground v.1.15,2013-07-01 10:08:00,
2013-07-01 05:10:00,53.3,51.3,30.06,NE,43,0.0,0.0,93,0.00,,,0.00,Wunderground v.1.15,2013-07-01 10:10:00,
2013-07-01 05:12:00,53.2,51.2,30.06,NE,43,0.0,0.0,93,0.00,,,0.00,Wunderground v.1.15,2013-07-01 10:12:00,
2013-07-01 05:14:00,53.1,51.1,30.06,NE,43,0.0,0.0,93,0.00,,,0.00,Wunderground v.1.15,2013-07-01 10:14:00,
2013-07-01 05:17:00,53.0,51.3,30.06,NE,43,0.0,0.0,94,0.00,,,0.00,Wunderground v.1.15,2013-07-01 10:17:00,
2013-07-01 05:20:00,53.0,51.3,30.06,NE,42,0.0,0.0,94,0.00,,,0.00,Wunderground v.1.15,2013-07-01 10:20:00,
2013-07-01 05:26:00,53.2,51.8,30.06,NE,43,0.0,0.0,95,0.00,,,0.00,Wunderground v.1.15,2013-07-01 10:26:00,
2013-07-01 05:28:00,53.2,51.8,30.06,NE,43,0.0,0.0,95,0.00,,,0.00,Wunderground v.1.15,2013-07-01 10:28:00,
2013-07-01 05:30:00,53.3,52.2,30.06,NE,43,0.0,0.0,96,0.00,,,0.00,Wunderground v.1.15,2013-07-01 10:30:00,
2013-07-01 05:32:00,53.3,52.2,30.06,NE,43,0.0,0.0,96,0.00,,,0.00,Wunderground v.1.15,2013-07-01 10:32:00,
2013-07-01 05:34:00,53.4,52.3,30.06,NE,43,0.0,0.0,96,0.00,,,0.00,Wunderground v.1.15,2013-07-01 10:34:00,
2013-07-01 05:36:00,53.5,52.4,30.06,NE,43,0.0,0.0,96,0.00,,,0.00,Wunderground v.1.15,2013-07-01 10:36:00,
2013-07-01 05:39:00,53.4,52.3,30.07,NE,43,0.0,0.0,96,0.00,,,0.00,Wunderground v.1.15,2013-07-01 10:39:00,
2013-07-01 05:42:00,53.5,52.4,30.06,NE,43,0.0,0.0,96,0.00,,,0.00,Wunderground v.1.15,2013-07-01 10:42:00,
2013-07-01 05:48:00,53.3,51.9,30.06,NE,43,0.0,0.0,95,0.00,,,0.00,Wunderground v.1.15,2013-07-01 10:48:00,
2013-07-01 05:50:00,53.3,51.9,30.07,NE,43,0.0,0.0,95,0.00,,,0.00,Wunderground v.1.15,2013-07-01 10:50:00,
2013-07-01 05:54:00,53.2,51.8,30.07,NE,43,0.0,0.0,95,0.00,,,0.00,Wunderground v.1.15,2013-07-01 10:54:00,
2013-07-01 05:56:00,53.2,51.8,30.07,NE,43,0.0,0.0,95,0.00,,,0.00,Wunderground v.1.15,2013-07-01 10:56:00,
2013-07-01 05:58:00,53.2,51.8,30.07,NNE,29,0.0,0.0,95,0.00,,,0.00,Wunderground v.1.15,2013-07-01 10:58:00,
2013-07-01 05:59:00,53.2,51.8,30.07,NNE,29,0.0,0.0,95,0.00,,,0.00,Wunderground v.1.15,2013-07-01 10:59:00,
2013-07-01 06:01:00,53.2,51.8,30.07,NNE,28,0.0,0.0,95,0.00,,,0.00,Wunderground v.1.15,2013-07-01 11:01:00,
2013-07-01 06:04:00,53.2,51.8,30.07,NNE,28,0.0,0.0,95,0.00,,,0.00,Wunderground v.1.15,2013-07-01 11:04:00,
2013-07-01 06:06:00,53.2,51.8,30.07,NNE,33,0.0,0.0,95,0.00,,,0.00,Wunderground v.1.15,2013-07-01 11:06:00,
2013-07-01 06:08:00,53.2,52.1,30.07,NNE,33,0.0,0.0,96,0.00,,,0.00,Wunderground v.1.15,2013-07-01 11:08:00,
2013-07-01 06:10:00,53.3,52.2,30.07,NNE,33,0.0,0.0,96,0.00,,,0.00,Wunderground v.1.15,2013-07-01 11:10:00,
2013-07-01 06:14:00,53.4,52.3,30.07,NNE,33,0.0,0.0,96,0.00,,,0.00,Wunderground v.1.15,2013-07-01 11:14:00,
2013-07-01 06:16:00,53.5,52.4,30.07,NNE,33,0.0,0.0,96,0.00,,,0.00,Wunderground v.1.15,2013-07-01 11:16:00,
2013-07-01 06:18:00,53.6,52.5,30.07,NNE,33,0.0,0.0,96,0.00,,,0.00,Wunderground v.1.15,2013-07-01 11:18:00,
2013-07-01 06:21:00,53.7,52.3,30.07,NNE,33,0.0,0.0,95,0.00,,,0.00,Wunderground v.1.15,2013-07-01 11:21:00,
2013-07-01 06:24:00,53.7,52.6,30.07,NNE,33,0.0,0.0,96,0.00,,,0.00,Wunderground v.1.15,2013-07-01 11:24:00,
2013-07-01 06:30:00,54.1,53.0,30.07,NNE,32,0.0,0.0,96,0.00,,,0.00,Wunderground v.1.15,2013-07-01 11:30:00,
2013-07-01 06:32:00,54.3,53.2,30.08,NNE,33,0.0,0.0,96,0.00,,,0.00,Wunderground v.1.15,2013-07-01 11:32:00,
2013-07-01 06:38:00,55.0,53.9,30.08,NNW,338,0.0,0.0,96,0.00,,,0.00,Wunderground v.1.15,2013-07-01 11:38:00,
2013-07-01 06:40:00,55.3,54.2,30.08,NNW,340,0.0,0.0,96,0.00,,,0.00,Wunderground v.1.15,2013-07-01 11:40:00,
2013-07-01 06:43:00,55.9,54.8,30.08,NNW,340,0.0,0.0,96,0.00,,,0.00,Wunderground v.1.15,2013-07-01 11:43:00,
2013-07-01 06:46:00,56.2,55.1,30.08,NNW,340,0.0,0.0,96,0.00,,,0.00,Wunderground v.1.15,2013-07-01 11:46:00,
2013-07-01 06:48:00,56.5,55.1,30.08,NNW,340,0.0,0.0,95,0.00,,,0.00,Wunderground v.1.15,2013-07-01 11:48:00,
2013-07-01 06:50:00,56.8,55.4,30.08,NNW,340,0.0,0.0,95,0.00,,,0.00,Wunderground v.1.15,2013-07-01 11:50:00,
2013-07-01 06:52:00,57.1,55.7,30.08,NNW,340,0.0,0.0,95,0.00,,,0.00,Wunderground v.1.15,2013-07-01 11:52:00,
2013-07-01 06:56:00,57.6,55.9,30.08,NNW,340,0.0,0.0,94,0.00,,,0.00,Wunderground v.1.15,2013-07-01 11:56:00,
2013-07-01 06:58:00,57.9,56.2,30.08,NNW,340,0.0,0.0,94,0.00,,,0.00,Wunderground v.1.15,2013-07-01 11:58:00,
2013-07-01 07:00:00,58.1,56.4,30.08,NNW,340,0.0,1.0,94,0.00,,,0.00,Wunderground v.1.15,2013-07-01 12:00:00,
2013-07-01 07:02:00,58.3,56.3,30.08,NNW,339,0.0,1.0,93,0.00,,,0.00,Wunderground v.1.15,2013-07-01 12:02:00,
2013-07-01 07:03:00,58.5,56.5,30.08,NNW,340,0.0,1.0,93,0.00,,,0.00,Wunderground v.1.15,2013-07-01 12:03:00,
2013-07-01 07:08:00,58.9,56.6,30.08,NNW,340,1.0,1.0,92,0.00,,,0.00,Wunderground v.1.15,2013-07-01 12:08:00,
2013-07-01 07:10:00,59.1,56.8,30.08,NNW,340,1.0,1.0,92,0.00,,,0.00,Wunderground v.1.15,2013-07-01 12:10:00,
2013-07-01 07:12:00,59.4,57.1,30.08,NNW,340,1.0,1.0,92,0.00,,,0.00,Wunderground v.1.15,2013-07-01 12:12:00,
2013-07-01 07:18:00,60.0,57.4,30.08,NNW,330,1.0,1.0,91,0.00,,,0.00,Wunderground v.1.15,2013-07-01 12:18:00,
2013-07-01 07:20:00,60.2,57.6,30.08,NNW,327,1.0,1.0,91,0.00,,,0.00,Wunderground v.1.15,2013-07-01 12:20:00,
2013-07-01 07:24:00,60.5,57.6,30.08,NNW,328,1.0,1.0,90,0.00,,,0.00,Wunderground v.1.15,2013-07-01 12:24:00,
2013-07-01 07:26:00,60.7,57.7,30.08,NNW,328,1.0,1.0,90,0.00,,,0.00,Wunderground v.1.15,2013-07-01 12:26:00,
2013-07-01 07:29:00,61.2,58.6,30.08,NNW,327,1.0,1.0,91,0.00,,,0.00,Wunderground v.1.15,2013-07-01 12:29:00,
2013-07-01 07:31:00,61.4,58.4,30.08,NNW,330,1.0,1.0,90,0.00,,,0.00,Wunderground v.1.15,2013-07-01 12:31:00,
2013-07-01 07:34:00,61.7,58.7,30.08,NNW,337,1.0,1.0,90,0.00,,,0.00,Wunderground v.1.15,2013-07-01 12:34:00,
2013-07-01 07:36:00,61.9,58.9,30.08,NNW,330,1.0,1.0,90,0.00,,,0.00,Wunderground v.1.15,2013-07-01 12:36:00,
2013-07-01 07:38:00,62.1,58.8,30.08,NNW,333,1.0,1.0,89,0.00,,,0.00,Wunderground v.1.15,2013-07-01 12:38:00,
2013-07-01 07:40:00,62.3,59.0,30.08,NNW,333,1.0,2.0,89,0.00,,,0.00,Wunderground v.1.15,2013-07-01 12:40:00,
2013-07-01 07:42:00,62.5,58.9,30.08,NNW,343,1.0,2.0,88,0.00,,,0.00,Wunderground v.1.15,2013-07-01 12:42:00,
2013-07-01 07:44:00,62.8,59.2,30.08,NNW,335,1.0,2.0,88,0.00,,,0.00,Wunderground v.1.15,2013-07-01 12:44:00,
2013-07-01 07:46:00,63.0,59.1,30.08,NNW,342,1.0,2.0,87,0.00,,,0.00,Wunderground v.1.15,2013-07-01 12:46:00,
2013-07-01 07:49:00,63.6,59.7,30.08,North,358,1.0,1.0,87,0.00,,,0.00,Wunderground v.1.15,2013-07-01 12:49:00,
2013-07-01 07:51:00,64.0,60.1,30.08,NNE,18,1.0,1.0,87,0.00,,,0.00,Wunderground v.1.15,2013-07-01 12:51:00,
2013-07-01 07:54:00,64.4,60.1,30.08,NNW,346,1.0,1.0,86,0.00,,,0.00,Wunderground v.1.15,2013-07-01 12:54:00,
2013-07-01 07:56:00,64.7,60.4,30.08,NNW,339,1.0,1.0,86,0.00,,,0.00,Wunderground v.1.15,2013-07-01 12:56:00,
2013-07-01 07:58:00,64.9,60.3,30.08,North,350,1.0,1.0,85,0.00,,,0.00,Wunderground v.1.15,2013-07-01 12:58:00,
2013-07-01 08:00:00,65.2,60.2,30.08,NNW,343,1.0,1.0,84,0.00,,,0.00,Wunderground v.1.15,2013-07-01 13:00:00,
2013-07-01 08:02:00,65.4,60.1,30.08,NNW,339,1.0,1.0,83,0.00,,,0.00,Wunderground v.1.15,2013-07-01 13:02:00,
2013-07-01 08:08:00,66.2,60.2,30.08,NNW,347,2.0,3.0,81,0.00,,,0.00,Wunderground v.1.15,2013-07-01 13:08:00,
2013-07-01 08:10:00,66.5,60.5,30.08,North,360,2.0,2.0,81,0.00,,,0.00,Wunderground v.1.15,2013-07-01 13:10:00,
2013-07-01 08:11:00,66.7,60.7,30.08,North,354,2.0,2.0,81,0.00,,,0.00,Wunderground v.1.15,2013-07-01 13:11:00,
2013-07-01 08:16:00,67.4,60.7,30.08,NNE,27,1.0,2.0,79,0.00,,,0.00,Wunderground v.1.15,2013-07-01 13:16:00,
2013-07-01 08:18:00,67.8,61.8,30.08,NNE,26,1.0,2.0,81,0.00,,,0.00,Wunderground v.1.15,2013-07-01 13:18:00,
2013-07-01 08:22:00,68.5,61.4,30.08,NNE,16,1.0,2.0,78,0.00,,,0.00,Wunderground v.1.15,2013-07-01 13:22:00,
2013-07-01 08:26:00,69.0,61.5,30.08,NNE,15,1.0,4.0,77,0.00,,,0.00,Wunderground v.1.15,2013-07-01 13:26:00,
2013-07-01 08:28:00,69.1,60.8,30.08,NNE,12,2.0,4.0,75,0.00,,,0.00,Wunderground v.1.15,2013-07-01 13:28:00,
2013-07-01 08:30:00,69.3,61.4,30.08,NNW,345,2.0,3.0,76,0.00,,,0.00,Wunderground v.1.15,2013-07-01 13:30:00,
2013-07-01 08:33:00,69.6,61.3,30.08,NE,35,2.0,3.0,75,0.00,,,0.00,Wunderground v.1.15,2013-07-01 13:33:00,
2013-07-01 08:35:00,69.8,62.3,30.08,North,352,2.0,4.0,77,0.00,,,0.00,Wunderground v.1.15,2013-07-01 13:35:00,
2013-07-01 08:38:00,70.1,61.8,30.08,NE,43,2.0,4.0,75,0.00,,,0.00,Wunderground v.1.15,2013-07-01 13:38:00,
2013-07-01 08:42:00,70.6,62.3,30.09,NNE,26,2.0,4.0,75,0.00,,,0.00,Wunderground v.1.15,2013-07-01 13:42:00,
2013-07-01 08:44:00,70.8,61.3,30.09,NNE,16,3.0,5.0,72,0.00,,,0.00,Wunderground v.1.15,2013-07-01 13:44:00,
2013-07-01 08:46:00,71.0,61.9,30.09,NNE,13,3.0,5.0,73,0.00,,,0.00,Wunderground v.1.15,2013-07-01 13:46:00,
2013-07-01 08:50:00,71.4,61.9,30.09,NNE,23,4.0,4.0,72,0.00,,,0.00,Wunderground v.1.15,2013-07-01 13:50:00,
2013-07-01 08:52:00,71.6,60.9,30.09,NNE,30,4.0,5.0,69,0.00,,,0.00,Wunderground v.1.15,2013-07-01 13:52:00,
2013-07-01 08:53:00,71.7,61.0,30.09,NE,51,4.0,5.0,69,0.00,,,0.00,Wunderground v.1.15,2013-07-01 13:53:00,
2013-07-01 08:55:00,71.8,60.7,30.09,NNE,31,4.0,5.0,68,0.00,,,0.00,Wunderground v.1.15,2013-07-01 13:55:00,
2013-07-01 08:58:00,72.1,62.2,30.09,NE,38,4.0,5.0,71,0.00,,,0.00,Wunderground v.1.15,2013-07-01 13:58:00,
2013-07-01 09:00:00,72.2,61.0,30.09,NNE,27,5.0,6.0,68,0.00,,,0.00,Wunderground v.1.15,2013-07-01 14:00:00,
2013-07-01 09:02:00,72.4,61.7,30.09,NNE,27,5.0,6.0,69,0.00,,,0.00,Wunderground v.1.15,2013-07-01 14:02:00,
2013-07-01 09:08:00,72.8,60.8,30.09,NE,35,5.0,6.0,66,0.00,,,0.00,Wunderground v.1.15,2013-07-01 14:08:00,
2013-07-01 09:10:00,73.0,60.5,30.09,NE,41,5.0,7.0,65,0.00,,,0.00,Wunderground v.1.15,2013-07-01 14:10:00,
2013-07-01 09:14:00,72.9,60.9,30.09,NE,49,5.0,8.0,66,0.00,,,0.00,Wunderground v.1.15,2013-07-01 14:14:00,
2013-07-01 09:15:00,73.1,60.6,30.09,ENE,69,6.0,8.0,65,0.00,,,0.00,Wunderground v.1.15,2013-07-01 14:15:00,
2013-07-01 09:17:00,73.2,60.3,30.09,NE,53,6.0,8.0,64,0.00,,,0.00,Wunderground v.1.15,2013-07-01 14:17:00,
2013-07-01 09:20:00,73.3,60.4,30.09,NE,39,6.0,6.0,64,0.00,,,0.00,Wunderground v.1.15,2013-07-01 14:20:00,
2013-07-01 09:22:00,73.4,60.0,30.09,NE,44,5.0,6.0,63,0.00,,,0.00,Wunderground v.1.15,2013-07-01 14:22:00,
2013-07-01 09:24:00,73.3,59.5,30.09,NE,56,5.0,6.0,62,0.00,,,0.00,Wunderground v.1.15,2013-07-01 14:24:00,
2013-07-01 09:26:00,73.3,59.5,30.09,NE,35,5.0,7.0,62,0.00,,,0.00,Wunderground v.1.15,2013-07-01 14:26:00,
2013-07-01 09:28:00,73.3,60.4,30.08,ENE,65,6.0,7.0,64,0.00,,,0.00,Wunderground v.1.15,2013-07-01 14:28:00,
2013-07-01 09:30:00,73.3,59.0,30.09,North,9,6.0,6.0,61,0.00,,,0.00,Wunderground v.1.15,2013-07-01 14:30:00,
2013-07-01 09:32:00,73.4,59.6,30.08,NNE,27,6.0,6.0,62,0.00,,,0.00,Wunderground v.1.15,2013-07-01 14:32:00,
2013-07-01 09:34:00,73.5,59.2,30.08,NNE,30,6.0,6.0,61,0.00,,,0.00,Wunderground v.1.15,2013-07-01 14:34:00,
2013-07-01 09:36:00,73.6,60.7,30.08,NNE,33,6.0,6.0,64,0.00,,,0.00,Wunderground v.1.15,2013-07-01 14:36:00,
2013-07-01 09:38:00,73.8,59.5,30.08,NNE,16,6.0,6.0,61,0.00,,,0.00,Wunderground v.1.15,2013-07-01 14:38:00,
2013-07-01 09:40:00,73.9,60.1,30.08,NE,35,6.0,6.0,62,0.00,,,0.00,Wunderground v.1.15,2013-07-01 14:40:00,
2013-07-01 09:43:00,74.0,58.3,30.08,NNE,21,6.0,8.0,58,0.00,,,0.00,Wunderground v.1.15,2013-07-01 14:43:00,
2013-07-01 09:46:00,74.1,59.3,30.08,NE,51,6.0,8.0,60,0.00,,,0.00,Wunderground v.1.15,2013-07-01 14:46:00,
2013-07-01 09:48:00,74.2,59.4,30.08,North,5,7.0,8.0,60,0.00,,,0.00,Wunderground v.1.15,2013-07-01 14:48:00,
2013-07-01 09:50:00,74.3,59.0,30.08,ENE,58,7.0,7.0,59,0.00,,,0.00,Wunderground v.1.15,2013-07-01 14:50:00,
2013-07-01 09:52:00,74.5,59.2,30.08,ENE,58,6.0,7.0,59,0.00,,,0.00,Wunderground v.1.15,2013-07-01 14:52:00,
2013-07-01 09:54:00,74.8,60.0,30.08,NNE,16,6.0,7.0,60,0.00,,,0.00,Wunderground v.1.15,2013-07-01 14:54:00,
2013-07-01 09:56:00,74.9,59.6,30.08,NNE,18,6.0,7.0,59,0.00,,,0.00,Wunderground v.1.15,2013-07-01 14:56:00,
2013-07-01 10:00:00,75.1,59.8,30.08,NE,35,6.0,6.0,59,0.00,,,0.00,Wunderground v.1.15,2013-07-01 15:00:00,
2013-07-01 10:03:00,75.4,59.6,30.08,NE,35,6.0,7.0,58,0.00,,,0.00,Wunderground v.1.15,2013-07-01 15:03:00,
2013-07-01 10:06:00,75.6,58.8,30.08,ENE,71,6.0,7.0,56,0.00,,,0.00,Wunderground v.1.15,2013-07-01 15:06:00,
2013-07-01 10:07:00,75.7,59.4,30.08,NE,51,6.0,8.0,57,0.00,,,0.00,Wunderground v.1.15,2013-07-01 15:07:00,
2013-07-01 10:12:00,75.7,58.9,30.08,NE,47,7.0,8.0,56,0.00,,,0.00,Wunderground v.1.15,2013-07-01 15:12:00,
2013-07-01 10:14:00,75.8,59.0,30.08,NE,39,6.0,8.0,56,0.00,,,0.00,Wunderground v.1.15,2013-07-01 15:14:00,
2013-07-01 10:18:00,76.1,57.7,30.08,NE,45,7.0,8.0,53,0.00,,,0.00,Wunderground v.1.15,2013-07-01 15:18:00,
2013-07-01 10:20:00,76.1,57.7,30.08,NE,39,7.0,7.0,53,0.00,,,0.00,Wunderground v.1.15,2013-07-01 15:20:00,
2013-07-01 10:26:00,76.4,58.0,30.08,ENE,59,6.0,10.0,53,0.00,,,0.00,Wunderground v.1.15,2013-07-01 15:26:00,
2013-07-01 10:27:00,76.2,55.6,30.08,NE,47,6.0,10.0,49,0.00,,,0.00,Wunderground v.1.15,2013-07-01 15:27:00,
2013-07-01 10:29:00,76.4,59.0,30.08,NNE,25,6.0,6.0,55,0.00,,,0.00,Wunderground v.1.15,2013-07-01 15:29:00,
2013-07-01 10:34:00,76.7,58.3,30.08,NNE,27,6.0,6.0,53,0.00,,,0.00,Wunderground v.1.15,2013-07-01 15:34:00,
2013-07-01 10:36:00,76.9,57.4,30.08,North,6,6.0,6.0,51,0.00,,,0.00,Wunderground v.1.15,2013-07-01 15:36:00,
2013-07-01 10:38:00,77.0,59.1,30.08,NNE,27,5.0,6.0,54,0.00,,,0.00,Wunderground v.1.15,2013-07-01 15:38:00,
2013-07-01 10:42:00,77.2,56.6,30.08,NNE,20,5.0,7.0,49,0.00,,,0.00,Wunderground v.1.15,2013-07-01 15:42:00,
2013-07-01 10:44:00,77.2,57.1,30.08,NE,50,5.0,8.0,50,0.00,,,0.00,Wunderground v.1.15,2013-07-01 15:44:00,
2013-07-01 10:46:00,77.1,57.6,30.08,NNE,16,6.0,8.0,51,0.00,,,0.00,Wunderground v.1.15,2013-07-01 15:46:00,
2013-07-01 10:48:00,77.0,57.5,30.08,NNE,20,6.0,8.0,51,0.00,,,0.00,Wunderground v.1.15,2013-07-01 15:48:00,
2013-07-01 10:51:00,77.2,58.7,30.08,ENE,65,6.0,6.0,53,0.00,,,0.00,Wunderground v.1.15,2013-07-01 15:51:00,
2013-07-01 10:56:00,77.2,57.1,30.08,NE,39,6.0,6.0,50,0.00,,,0.00,Wunderground v.1.15,2013-07-01 15:56:00,
2013-07-01 10:58:00,77.1,57.0,30.08,NE,56,6.0,6.0,50,0.00,,,0.00,Wunderground v.1.15,2013-07-01 15:58:00,
2013-07-01 11:02:00,77.1,55.9,30.08,NE,40,6.0,7.0,48,0.00,,,0.00,Wunderground v.1.15,2013-07-01 16:02:00,
2013-07-01 11:06:00,77.2,55.4,30.08,NE,36,7.0,7.0,47,0.00,,,0.00,Wunderground v.1.15,2013-07-01 16:06:00,
2013-07-01 11:08:00,77.4,56.2,30.08,NE,46,7.0,8.0,48,0.00,,,0.00,Wunderground v.1.15,2013-07-01 16:08:00,
2013-07-01 11:09:00,77.4,56.7,30.08,NE,50,7.0,7.0,49,0.00,,,0.00,Wunderground v.1.15,2013-07-01 16:09:00,
2013-07-01 11:12:00,77.4,55.0,30.08,ENE,68,6.0,7.0,46,0.00,,,0.00,Wunderground v.1.15,2013-07-01 16:12:00,
2013-07-01 11:15:00,77.5,57.9,30.08,NNE,33,6.0,7.0,51,0.00,,,0.00,Wunderground v.1.15,2013-07-01 16:15:00,
2013-07-01 11:20:00,77.4,53.1,30.08,NE,52,5.0,10.0,43,0.00,,,0.00,Wunderground v.1.15,2013-07-01 16:20:00,
2013-07-01 11:22:00,77.4,54.4,30.08,NE,42,6.0,10.0,45,0.00,,,0.00,Wunderground v.1.15,2013-07-01 16:22:00,
2013-07-01 11:26:00,77.4,53.8,30.08,NE,44,6.0,10.0,44,0.00,,,0.00,Wunderground v.1.15,2013-07-01 16:26:00,
2013-07-01 11:28:00,77.3,54.3,30.08,NE,56,5.0,10.0,45,0.00,,,0.00,Wunderground v.1.15,2013-07-01 16:28:00,
2013-07-01 11:32:00,77.3,54.3,30.08,NE,50,5.0,8.0,45,0.00,,,0.00,Wunderground v.1.15,2013-07-01 16:32:00,
2013-07-01 11:34:00,77.4,54.4,30.08,ESE,103,6.0,8.0,45,0.00,,,0.00,Wunderground v.1.15,2013-07-01 16:34:00,
2013-07-01 11:35:00,77.4,53.8,30.08,ENE,59,6.0,8.0,44,0.00,,,0.00,Wunderground v.1.15,2013-07-01 16:35:00,
2013-07-01 11:40:00,77.7,54.7,30.08,NE,56,5.0,6.0,45,0.00,,,0.00,Wunderground v.1.15,2013-07-01 16:40:00,
2013-07-01 11:42:00,77.7,55.3,30.08,ENE,59,5.0,10.0,46,0.00,,,0.00,Wunderground v.1.15,2013-07-01 16:42:00,
2013-07-01 11:44:00,77.6,54.0,30.08,ENE,78,6.0,10.0,44,0.00,,,0.00,Wunderground v.1.15,2013-07-01 16:44:00,
2013-07-01 11:48:00,77.7,54.7,30.08,NE,50,7.0,10.0,45,0.00,,,0.00,Wunderground v.1.15,2013-07-01 16:48:00,
2013-07-01 11:50:00,77.9,55.5,30.08,ESE,104,7.0,7.0,46,0.00,,,0.00,Wunderground v.1.15,2013-07-01 16:50:00,
2013-07-01 11:54:00,77.8,56.0,30.08,NE,56,6.0,7.0,47,0.00,,,0.00,Wunderground v.1.15,2013-07-01 16:54:00,
2013-07-01 11:56:00,78.0,55.5,30.08,NE,46,5.0,7.0,46,0.00,,,0.00,Wunderground v.1.15,2013-07-01 16:56:00,
2013-07-01 11:57:00,78.1,53.8,30.08,East,100,6.0,7.0,43,0.00,,,0.00,Wunderground v.1.15,2013-07-01 16:57:00,
2013-07-01 12:02:00,78.1,54.4,30.08,ENE,58,5.0,9.0,44,0.00,,,0.00,Wunderground v.1.15,2013-07-01 17:02:00,
2013-07-01 12:04:00,78.2,55.1,30.08,ENE,58,5.0,9.0,45,0.00,,,0.00,Wunderground v.1.15,2013-07-01 17:04:00,
2013-07-01 12:06:00,78.3,54.6,30.08,ENE,64,5.0,9.0,44,0.00,,,0.00,Wunderground v.1.15,2013-07-01 17:06:00,
2013-07-01 12:08:00,78.6,57.8,30.08,NE,40,5.0,9.0,49,0.00,,,0.00,Wunderground v.1.15,2013-07-01 17:08:00,
2013-07-01 12:10:00,78.8,55.0,30.08,NE,54,6.0,6.0,44,0.00,,,0.00,Wunderground v.1.15,2013-07-01 17:10:00,
2013-07-01 12:12:00,78.9,53.2,30.08,NE,51,6.0,12.0,41,0.00,,,0.00,Wunderground v.1.15,2013-07-01 17:12:00,
2013-07-01 12:14:00,78.7,53.0,30.08,NE,51,6.0,12.0,41,0.00,,,0.00,Wunderground v.1.15,2013-07-01 17:14:00,
2013-07-01 12:16:00,78.7,52.3,30.08,NE,47,7.0,12.0,40,0.00,,,0.00,Wunderground v.1.15,2013-07-01 17:16:00,
2013-07-01 12:18:00,78.7,53.7,30.08,NNE,30,7.0,12.0,42,0.00,,,0.00,Wunderground v.1.15,2013-07-01 17:18:00,
2013-07-01 12:22:00,78.9,55.1,30.08,NNE,13,8.0,8.0,44,0.00,,,0.00,Wunderground v.1.15,2013-07-01 17:22:00,
2013-07-01 12:24:00,78.9,54.5,30.08,NE,50,8.0,8.0,43,0.00,,,0.00,Wunderground v.1.15,2013-07-01 17:24:00,
2013-07-01 12:26:00,79.0,55.2,30.08,NE,42,8.0,8.0,44,0.00,,,0.00,Wunderground v.1.15,2013-07-01 17:26:00,
2013-07-01 12:28:00,79.1,55.3,30.08,NE,39,7.0,8.0,44,0.00,,,0.00,Wunderground v.1.15,2013-07-01 17:28:00,
2013-07-01 12:30:00,79.1,54.7,30.08,ENE,61,7.0,8.0,43,0.00,,,0.00,Wunderground v.1.15,2013-07-01 17:30:00,
2013-07-01 12:32:00,79.1,53.4,30.08,ENE,58,7.0,8.0,41,0.00,,,0.00,Wunderground v.1.15,2013-07-01 17:32:00,
2013-07-01 12:38:00,79.2,54.8,30.08,ENE,59,6.0,8.0,43,0.00,,,0.00,Wunderground v.1.15,2013-07-01 17:38:00,
2013-07-01 12:40:00,79.3,53.6,30.07,ENE,68,5.0,5.0,41,0.00,,,0.00,Wunderground v.1.15,2013-07-01 17:40:00,
2013-07-01 12:42:00,79.3,53.6,30.08,NE,56,5.0,8.0,41,0.00,,,0.00,Wunderground v.1.15,2013-07-01 17:42:00,
2013-07-01 12:46:00,79.7,55.2,30.08,ENE,68,5.0,8.0,43,0.00,,,0.00,Wunderground v.1.15,2013-07-01 17:46:00,
2013-07-01 12:48:00,79.8,56.6,30.07,NNE,25,6.0,8.0,45,0.00,,,0.00,Wunderground v.1.15,2013-07-01 17:48:00,
2013-07-01 12:50:00,79.8,55.3,30.07,ENE,58,7.0,9.0,43,0.00,,,0.00,Wunderground v.1.15,2013-07-01 17:50:00,
2013-07-01 12:52:00,79.7,54.6,30.08,NE,56,7.0,9.0,42,0.00,,,0.00,Wunderground v.1.15,2013-07-01 17:52:00,
2013-07-01 12:56:00,79.7,57.1,30.07,NE,39,7.0,9.0,46,0.00,,,0.00,Wunderground v.1.15,2013-07-01 17:56:00,
2013-07-01 12:58:00,79.8,56.6,30.07,ENE,58,7.0,9.0,45,0.00,,,0.00,Wunderground v.1.15,2013-07-01 17:58:00,
2013-07-01 13:00:00,79.9,55.4,30.07,ENE,58,7.0,7.0,43,0.00,,,0.00,Wunderground v.1.15,2013-07-01 18:00:00,
2013-07-01 13:02:00,79.9,55.4,30.08,East,96,6.0,14.0,43,0.00,,,0.00,Wunderground v.1.15,2013-07-01 18:02:00,
2013-07-01 13:04:00,80.0,55.5,30.07,ENE,70,6.0,14.0,43,0.00,,,0.00,Wunderground v.1.15,2013-07-01 18:04:00,
2013-07-01 13:05:00,79.9,55.4,30.07,NE,38,6.0,14.0,43,0.00,,,0.00,Wunderground v.1.15,2013-07-01 18:05:00,
2013-07-01 13:10:00,80.0,54.8,30.07,ENE,69,6.0,6.0,42,0.00,,,0.00,Wunderground v.1.15,2013-07-01 18:10:00,
2013-07-01 13:12:00,80.1,55.6,30.07,NE,49,5.0,14.0,43,0.00,,,0.00,Wunderground v.1.15,2013-07-01 18:12:00,
2013-07-01 13:14:00,80.3,54.5,30.07,NNE,17,5.0,14.0,41,0.00,,,0.00,Wunderground v.1.15,2013-07-01 18:14:00,
2013-07-01 13:16:00,80.3,55.8,30.07,North,353,5.0,14.0,43,0.00,,,0.00,Wunderground v.1.15,2013-07-01 18:16:00,
2013-07-01 13:20:00,80.6,55.4,30.07,ENE,65,5.0,14.0,42,0.00,,,0.00,Wunderground v.1.15,2013-07-01 18:20:00,
2013-07-01 13:22:00,80.5,55.9,30.07,ENE,72,6.0,14.0,43,0.00,,,0.00,Wunderground v.1.15,2013-07-01 18:22:00,
2013-07-01 13:27:00,80.0,55.5,30.07,ENE,72,7.0,14.0,43,0.00,,,0.00,Wunderground v.1.15,2013-07-01 18:27:00,
2013-07-01 13:29:00,79.9,54.1,30.07,ENE,58,7.0,14.0,41,0.00,,,0.00,Wunderground v.1.15,2013-07-01 18:29:00,
2013-07-01 13:36:00,80.0,58.5,30.07,NW,323,7.0,14.0,48,0.00,,,0.00,Wunderground v.1.15,2013-07-01 18:36:00,
2013-07-01 13:38:00,80.3,55.8,30.07,NE,51,6.0,14.0,43,0.00,,,0.00,Wunderground v.1.15,2013-07-01 18:38:00,
2013-07-01 13:42:00,80.4,55.9,30.07,NE,49,6.0,11.0,43,0.00,,,0.00,Wunderground v.1.15,2013-07-01 18:42:00,
2013-07-01 13:46:00,80.4,55.2,30.06,NE,51,7.0,14.0,42,0.00,,,0.00,Wunderground v.1.15,2013-07-01 18:46:00,
2013-07-01 13:47:00,80.3,57.0,30.07,NE,50,7.0,14.0,45,0.00,,,0.00,Wunderground v.1.15,2013-07-01 18:47:00,
2013-07-01 13:51:00,80.5,57.8,30.07,NE,52,7.0,14.0,46,0.00,,,0.00,Wunderground v.1.15,2013-07-01 18:51:00,
2013-07-01 13:54:00,80.5,55.9,30.07,NE,43,7.0,14.0,43,0.00,,,0.00,Wunderground v.1.15,2013-07-01 18:54:00,
2013-07-01 13:58:00,80.5,55.9,30.06,NE,56,7.0,14.0,43,0.00,,,0.00,Wunderground v.1.15,2013-07-01 18:58:00,
2013-07-01 14:00:00,80.7,58.0,30.06,ENE,63,7.0,7.0,46,0.00,,,0.00,Wunderground v.1.15,2013-07-01 19:00:00,
2013-07-01 14:02:00,80.8,56.9,30.06,ENE,72,7.0,14.0,44,0.00,,,0.00,Wunderground v.1.15,2013-07-01 19:02:00,
2013-07-01 14:04:00,81.0,56.4,30.06,NE,49,6.0,14.0,43,0.00,,,0.00,Wunderground v.1.15,2013-07-01 19:04:00,
2013-07-01 14:06:00,81.0,54.4,30.06,NE,48,6.0,14.0,40,0.00,,,0.00,Wunderground v.1.15,2013-07-01 19:06:00,
2013-07-01 14:08:00,81.0,54.4,30.06,East,82,5.0,14.0,40,0.00,,,0.00,Wunderground v.1.15,2013-07-01 19:08:00,
2013-07-01 14:09:00,81.0,54.4,30.06,ENE,70,5.0,14.0,40,0.00,,,0.00,Wunderground v.1.15,2013-07-01 19:09:00,
2013-07-01 14:11:00,81.0,55.7,30.06,ENE,68,5.0,14.0,42,0.00,,,0.00,Wunderground v.1.15,2013-07-01 19:11:00,
2013-07-01 14:16:00,81.0,55.1,30.06,East,97,5.0,14.0,41,0.00,,,0.00,Wunderground v.1.15,2013-07-01 19:16:00,
2013-07-01 14:18:00,81.1,57.7,30.06,NNE,29,5.0,14.0,45,0.00,,,0.00,Wunderground v.1.15,2013-07-01 19:18:00,
2013-07-01 14:24:00,80.8,54.9,30.06,ENE,64,5.0,14.0,41,0.00,,,0.00,Wunderground v.1.15,2013-07-01 19:24:00,
2013-07-01 14:28:00,81.1,55.2,30.06,NNE,21,5.0,14.0,41,0.00,,,0.00,Wunderground v.1.15,2013-07-01 19:28:00,
2013-07-01 14:30:00,81.1,55.2,30.06,NNW,345,6.0,14.0,41,0.00,,,0.00,Wunderground v.1.15,2013-07-01 19:30:00,
2013-07-01 14:33:00,81.4,55.4,30.06,ENE,60,6.0,14.0,41,0.00,,,0.00,Wunderground v.1.15,2013-07-01 19:33:00,
2013-07-01 14:36:00,81.2,53.9,30.06,ENE,58,7.0,14.0,39,0.00,,,0.00,Wunderground v.1.15,2013-07-01 19:36:00,
2013-07-01 14:38:00,81.0,55.1,30.06,NE,49,7.0,14.0,41,0.00,,,0.00,Wunderground v.1.15,2013-07-01 19:38:00,
2013-07-01 14:42:00,81.3,56.0,30.05,NE,51,7.0,14.0,42,0.00,,,0.00,Wunderground v.1.15,2013-07-01 19:42:00,
2013-07-01 14:44:00,81.4,54.8,30.05,NE,53,7.0,14.0,40,0.00,,,0.00,Wunderground v.1.15,2013-07-01 19:44:00,
2013-07-01 14:46:00,81.6,57.6,30.05,NE,53,6.0,14.0,44,0.00,,,0.00,Wunderground v.1.15,2013-07-01 19:46:00,
2013-07-01 14:50:00,81.5,56.2,30.05,NE,52,5.0,5.0,42,0.00,,,0.00,Wunderground v.1.15,2013-07-01 19:50:00,
2013-07-01 14:56:00,81.4,53.4,30.05,NE,47,5.0,14.0,38,0.00,,,0.00,Wunderground v.1.15,2013-07-01 19:56:00,
2013-07-01 14:58:00,81.4,55.4,30.05,East,96,5.0,14.0,41,0.00,,,0.00,Wunderground v.1.15,2013-07-01 19:58:00,
2013-07-01 15:02:00,81.5,54.8,30.05,NE,49,5.0,14.0,40,0.00,,,0.00,Wunderground v.1.15,2013-07-01 20:02:00,
2013-07-01 15:04:00,81.6,54.9,30.05,NE,56,5.0,14.0,40,0.00,,,0.00,Wunderground v.1.15,2013-07-01 20:04:00,
2013-07-01 15:08:00,82.3,56.9,30.04,ESE,110,4.0,14.0,42,0.00,,,0.00,Wunderground v.1.15,2013-07-01 20:08:00,
2013-07-01 15:12:00,82.3,55.6,30.05,NE,46,4.0,14.0,40,0.00,,,0.00,Wunderground v.1.15,2013-07-01 20:12:00,
2013-07-01 15:14:00,82.0,54.6,30.05,NE,39,4.0,14.0,39,0.00,,,0.00,Wunderground v.1.15,2013-07-01 20:14:00,
2013-07-01 15:18:00,80.7,55.5,30.04,NE,45,5.0,14.0,42,0.00,,,0.00,Wunderground v.1.15,2013-07-01 20:18:00,
2013-07-01 15:21:00,80.3,55.1,30.04,NE,53,5.0,14.0,42,0.00,,,0.00,Wunderground v.1.15,2013-07-01 20:21:00,
2013-07-01 15:26:00,80.7,56.8,30.04,NE,54,5.0,14.0,44,0.00,,,0.00,Wunderground v.1.15,2013-07-01 20:26:00,
2013-07-01 15:28:00,80.5,54.6,30.04,ENE,72,4.0,14.0,41,0.00,,,0.00,Wunderground v.1.15,2013-07-01 20:28:00,
2013-07-01 15:30:00,80.2,55.7,30.04,ENE,65,4.0,4.0,43,0.00,,,0.00,Wunderground v.1.15,2013-07-01 20:30:00,
2013-07-01 15:32:00,79.8,55.3,30.04,ENE,58,4.0,5.0,43,0.00,,,0.00,Wunderground v.1.15,2013-07-01 20:32:00,
2013-07-01 15:36:00,79.5,55.0,30.04,ENE,68,5.0,14.0,43,0.00,,,0.00,Wunderground v.1.15,2013-07-01 20:36:00,
2013-07-01 15:38:00,79.8,55.3,30.04,NE,49,4.0,14.0,43,0.00,,,0.00,Wunderground v.1.15,2013-07-01 20:38:00,
2013-07-01 15:39:00,80.2,57.5,30.04,ENE,74,4.0,4.0,46,0.00,,,0.00,Wunderground v.1.15,2013-07-01 20:39:00,
2013-07-01 15:41:00,80.6,55.4,30.04,NE,49,4.0,7.0,42,0.00,,,0.00,Wunderground v.1.15,2013-07-01 20:41:00,
2013-07-01 15:44:00,80.9,54.3,30.04,ENE,60,4.0,14.0,40,0.00,,,0.00,Wunderground v.1.15,2013-07-01 20:44:00,
2013-07-01 15:46:00,81.0,56.4,30.04,NNE,20,4.0,14.0,43,0.00,,,0.00,Wunderground v.1.15,2013-07-01 20:46:00,
2013-07-01 15:48:00,81.1,56.5,30.04,ESE,107,5.0,14.0,43,0.00,,,0.00,Wunderground v.1.15,2013-07-01 20:48:00,
2013-07-01 15:52:00,81.2,55.3,30.04,NE,44,6.0,14.0,41,0.00,,,0.00,Wunderground v.1.15,2013-07-01 20:52:00,
2013-07-01 15:54:00,81.3,54.0,30.04,ENE,64,6.0,14.0,39,0.00,,,0.00,Wunderground v.1.15,2013-07-01 20:54:00,
2013-07-01 15:56:00,81.3,55.3,30.04,NE,47,6.0,14.0,41,0.00,,,0.00,Wunderground v.1.15,2013-07-01 20:56:00,
2013-07-01 15:58:00,81.2,53.9,30.04,NNE,18,6.0,14.0,39,0.00,,,0.00,Wunderground v.1.15,2013-07-01 20:58:00,
2013-07-01 16:00:00,81.0,54.4,30.04,North,357,6.0,6.0,40,0.00,,,0.00,Wunderground v.1.15,2013-07-01 21:00:00,
2013-07-01 16:01:00,81.1,55.8,30.04,ENE,58,6.0,7.0,42,0.00,,,0.00,Wunderground v.1.15,2013-07-01 21:01:00,
2013-07-01 16:03:00,81.3,56.7,30.04,ENE,70,6.0,14.0,43,0.00,,,0.00,Wunderground v.1.15,2013-07-01 21:03:00,
2013-07-01 16:06:00,81.6,56.9,30.04,NE,56,5.0,14.0,43,0.00,,,0.00,Wunderground v.1.15,2013-07-01 21:06:00,
2013-07-01 16:12:00,81.7,54.3,30.04,NE,56,5.0,14.0,39,0.00,,,0.00,Wunderground v.1.15,2013-07-01 21:12:00,
2013-07-01 16:14:00,81.8,55.1,30.04,ENE,63,4.0,14.0,40,0.00,,,0.00,Wunderground v.1.15,2013-07-01 21:14:00,
2013-07-01 16:18:00,81.8,53.7,30.04,ENE,75,4.0,14.0,38,0.00,,,0.00,Wunderground v.1.15,2013-07-01 21:18:00,
2013-07-01 16:20:00,81.7,55.0,30.04,NE,45,4.0,14.0,40,0.00,,,0.00,Wunderground v.1.15,2013-07-01 21:20:00,
2013-07-01 16:22:00,81.7,55.7,30.04,NE,52,4.0,14.0,41,0.00,,,0.00,Wunderground v.1.15,2013-07-01 21:22:00,
2013-07-01 16:28:00,81.0,55.7,30.04,North,10,6.0,14.0,42,0.00,,,0.00,Wunderground v.1.15,2013-07-01 21:28:00,
2013-07-01 16:30:00,81.0,55.1,30.03,North,8,6.0,14.0,41,0.00,,,0.00,Wunderground v.1.15,2013-07-01 21:30:00,
2013-07-01 16:32:00,81.0,55.1,30.03,ENE,58,7.0,14.0,41,0.00,,,0.00,Wunderground v.1.15,2013-07-01 21:32:00,
2013-07-01 16:34:00,81.1,53.8,30.03,ENE,72,6.0,14.0,39,0.00,,,0.00,Wunderground v.1.15,2013-07-01 21:34:00,
2013-07-01 16:36:00,81.2,54.6,30.03,NE,56,6.0,14.0,40,0.00,,,0.00,Wunderground v.1.15,2013-07-01 21:36:00,
2013-07-01 16:40:00,81.3,56.7,30.03,ENE,60,5.0,5.0,43,0.00,,,0.00,Wunderground v.1.15,2013-07-01 21:40:00,
2013-07-01 16:42:00,81.4,56.8,30.03,NE,52,4.0,7.0,43,0.00,,,0.00,Wunderground v.1.15,2013-07-01 21:42:00,
2013-07-01 16:44:00,81.4,55.4,30.03,NE,49,4.0,14.0,41,0.00,,,0.00,Wunderground v.1.15,2013-07-01 21:44:00,
2013-07-01 16:46:00,81.5,57.5,30.03,East,82,4.0,14.0,44,0.00,,,0.00,Wunderground v.1.15,2013-07-01 21:46:00,
2013-07-01 16:52:00,81.7,57.0,30.03,NE,39,5.0,14.0,43,0.00,,,0.00,Wunderground v.1.15,2013-07-01 21:52:00,
2013-07-01 16:54:00,81.9,55.9,30.03,NE,34,4.0,14.0,41,0.00,,,0.00,Wunderground v.1.15,2013-07-01 21:54:00,
2013-07-01 16:58:00,81.8,55.1,30.03,ENE,63,5.0,14.0,40,0.00,,,0.00,Wunderground v.1.15,2013-07-01 21:58:00,
2013-07-01 17:00:00,81.6,54.9,30.03,NE,42,5.0,5.0,40,0.00,,,0.00,Wunderground v.1.15,2013-07-01 22:00:00,
2013-07-01 17:02:00,81.6,55.6,30.03,NE,56,5.0,14.0,41,0.00,,,0.00,Wunderground v.1.15,2013-07-01 22:02:00,
2013-07-01 17:04:00,81.6,54.2,30.03,NNE,32,5.0,14.0,39,0.00,,,0.00,Wunderground v.1.15,2013-07-01 22:04:00,
2013-07-01 17:06:00,81.5,54.8,30.03,ENE,72,5.0,14.0,40,0.00,,,0.00,Wunderground v.1.15,2013-07-01 22:06:00,
2013-07-01 17:08:00,81.6,54.2,30.03,East,83,4.0,14.0,39,0.00,,,0.00,Wunderground v.1.15,2013-07-01 22:08:00,
2013-07-01 17:09:00,81.7,55.0,30.03,SE,131,3.0,14.0,40,0.00,,,0.00,Wunderground v.1.15,2013-07-01 22:09:00,
2013-07-01 17:14:00,81.3,56.0,30.03,NNE,30,4.0,14.0,42,0.00,,,0.00,Wunderground v.1.15,2013-07-01 22:14:00,
2013-07-01 17:16:00,80.9,55.7,30.03,NNE,27,4.0,14.0,42,0.00,,,0.00,Wunderground v.1.15,2013-07-01 22:16:00,
2013-07-01 17:20:00,80.7,57.4,30.03,ENE,64,5.0,5.0,45,0.00,,,0.00,Wunderground v.1.15,2013-07-01 22:20:00,
2013-07-01 17:22:00,80.8,58.7,30.03,ENE,65,5.0,14.0,47,0.00,,,0.00,Wunderground v.1.15,2013-07-01 22:22:00,
2013-07-01 17:24:00,80.8,57.5,30.03,East,100,5.0,14.0,45,0.00,,,0.00,Wunderground v.1.15,2013-07-01 22:24:00,
2013-07-01 17:26:00,80.9,57.6,30.03,NE,41,4.0,14.0,45,0.00,,,0.00,Wunderground v.1.15,2013-07-01 22:26:00,
2013-07-01 17:30:00,81.2,55.3,30.03,ENE,64,4.0,4.0,41,0.00,,,0.00,Wunderground v.1.15,2013-07-01 22:30:00,
2013-07-01 17:33:00,81.4,57.4,30.03,ENE,60,3.0,14.0,44,0.00,,,0.00,Wunderground v.1.15,2013-07-01 22:33:00,
2013-07-01 17:38:00,81.4,55.4,30.03,NE,47,4.0,14.0,41,0.00,,,0.00,Wunderground v.1.15,2013-07-01 22:38:00,
2013-07-01 17:40:00,81.4,55.4,30.03,ENE,66,3.0,3.0,41,0.00,,,0.00,Wunderground v.1.15,2013-07-01 22:40:00,
2013-07-01 17:42:00,81.5,55.5,30.03,ENE,58,3.0,14.0,41,0.00,,,0.00,Wunderground v.1.15,2013-07-01 22:42:00,
2013-07-01 17:44:00,81.5,52.7,30.03,East,81,4.0,14.0,37,0.00,,,0.00,Wunderground v.1.15,2013-07-01 22:44:00,
2013-07-01 17:48:00,81.6,53.5,30.03,NE,40,4.0,14.0,38,0.00,,,0.00,Wunderground v.1.15,2013-07-01 22:48:00,
2013-07-01 17:50:00,81.7,55.0,30.03,ENE,72,4.0,14.0,40,0.00,,,0.00,Wunderground v.1.15,2013-07-01 22:50:00,
2013-07-01 17:51:00,81.6,56.3,30.03,NE,55,4.0,14.0,42,0.00,,,0.00,Wunderground v.1.15,2013-07-01 22:51:00,
2013-07-01 17:56:00,81.5,55.5,30.03,NE,47,4.0,14.0,41,0.00,,,0.00,Wunderground v.1.15,2013-07-01 22:56:00,
2013-07-01 17:58:00,81.5,56.8,30.03,NE,51,4.0,14.0,43,0.00,,,0.00,Wunderground v.1.15,2013-07-01 22:58:00,
2013-07-01 18:00:00,81.2,55.9,30.03,NE,49,4.0,14.0,42,0.00,,,0.00,Wunderground v.1.15,2013-07-01 23:00:00,
2013-07-01 18:02:00,80.8,54.9,30.03,NE,53,4.0,14.0,41,0.00,,,0.00,Wunderground v.1.15,2013-07-01 23:02:00,
2013-07-01 18:06:00,80.7,54.8,30.02,NE,47,4.0,14.0,41,0.00,,,0.00,Wunderground v.1.15,2013-07-01 23:06:00,
2013-07-01 18:08:00,80.8,55.6,30.02,ENE,58,4.0,14.0,42,0.00,,,0.00,Wunderground v.1.15,2013-07-01 23:08:00,
2013-07-01 18:10:00,80.9,56.3,30.02,ENE,60,3.0,3.0,43,0.00,,,0.00,Wunderground v.1.15,2013-07-01 23:10:00,
2013-07-01 18:12:00,81.0,55.1,30.02,ENE,60,3.0,14.0,41,0.00,,,0.00,Wunderground v.1.15,2013-07-01 23:12:00,
2013-07-01 18:14:00,81.2,55.3,30.02,East,91,2.0,14.0,41,0.00,,,0.00,Wunderground v.1.15,2013-07-01 23:14:00,
2013-07-01 18:16:00,81.2,55.9,30.02,NE,49,2.0,14.0,42,0.00,,,0.00,Wunderground v.1.15,2013-07-01 23:16:00,
2013-07-01 18:22:00,81.0,55.1,30.02,NE,49,3.0,14.0,41,0.00,,,0.00,Wunderground v.1.15,2013-07-01 23:22:00,
2013-07-01 18:24:00,80.9,55.0,30.02,NE,43,3.0,14.0,41,0.00,,,0.00,Wunderground v.1.15,2013-07-01 23:24:00,
2013-07-01 18:28:00,81.0,53.7,30.02,ENE,65,3.0,14.0,39,0.00,,,0.00,Wunderground v.1.15,2013-07-01 23:28:00,
2013-07-01 18:32:00,81.1,56.5,30.02,NE,42,3.0,5.0,43,0.00,,,0.00,Wunderground v.1.15,2013-07-01 23:32:00,
2013-07-01 18:34:00,80.9,55.0,30.02,NE,46,3.0,14.0,41,0.00,,,0.00,Wunderground v.1.15,2013-07-01 23:34:00,
2013-07-01 18:36:00,80.8,56.2,30.02,ENE,70,3.0,14.0,43,0.00,,,0.00,Wunderground v.1.15,2013-07-01 23:36:00,
2013-07-01 18:38:00,80.8,55.6,30.02,ENE,64,3.0,14.0,42,0.00,,,0.00,Wunderground v.1.15,2013-07-01 23:38:00,
2013-07-01 18:40:00,80.8,56.2,30.02,ENE,77,3.0,3.0,43,0.00,,,0.00,Wunderground v.1.15,2013-07-01 23:40:00,
2013-07-01 18:44:00,81.0,55.7,30.02,North,356,2.0,14.0,42,0.00,,,0.00,Wunderground v.1.15,2013-07-01 23:44:00,
2013-07-01 18:46:00,81.0,56.4,30.02,NE,40,2.0,14.0,43,0.00,,,0.00,Wunderground v.1.15,2013-07-01 23:46:00,
2013-07-01 18:48:00,80.9,55.7,30.02,ENE,62,2.0,14.0,42,0.00,,,0.00,Wunderground v.1.15,2013-07-01 23:48:00,
2013-07-01 18:52:00,80.6,55.4,30.02,ENE,61,3.0,14.0,42,0.00,,,0.00,Wunderground v.1.15,2013-07-01 23:52:00,
2013-07-01 18:58:00,80.3,56.4,30.02,ENE,58,3.0,14.0,44,0.00,,,0.00,Wunderground v.1.15,2013-07-01 23:58:00,
2013-07-01 19:02:00,80.1,56.8,30.02,ENE,59,3.0,14.0,45,0.00,,,0.00,Wunderground v.1.15,2013-07-02 00:02:00,
2013-07-01 19:06:00,79.9,55.4,30.02,NE,44,3.0,14.0,43,0.00,,,0.00,Wunderground v.1.15,2013-07-02 00:06:00,
2013-07-01 19:10:00,79.8,55.3,30.02,ENE,68,3.0,3.0,43,0.00,,,0.00,Wunderground v.1.15,2013-07-02 00:10:00,
2013-07-01 19:12:00,79.7,55.2,30.02,ENE,72,3.0,14.0,43,0.00,,,0.00,Wunderground v.1.15,2013-07-02 00:12:00,
2013-07-01 19:14:00,79.6,56.4,30.02,NE,44,3.0,14.0,45,0.00,,,0.00,Wunderground v.1.15,2013-07-02 00:14:00,
2013-07-01 19:16:00,79.5,56.3,30.02,ENE,63,3.0,14.0,45,0.00,,,0.00,Wunderground v.1.15,2013-07-02 00:16:00,
2013-07-01 19:20:00,79.4,57.4,30.02,North,4,2.0,14.0,47,0.00,,,0.00,Wunderground v.1.15,2013-07-02 00:20:00,
2013-07-01 19:24:00,79.3,55.5,30.02,NE,41,2.0,14.0,44,0.00,,,0.00,Wunderground v.1.15,2013-07-02 00:24:00,
2013-07-01 19:26:00,79.3,56.1,30.02,ENE,63,2.0,14.0,45,0.00,,,0.00,Wunderground v.1.15,2013-07-02 00:26:00,
2013-07-01 19:28:00,79.3,56.7,30.02,NE,44,2.0,14.0,46,0.00,,,0.00,Wunderground v.1.15,2013-07-02 00:28:00,
2013-07-01 19:30:00,79.2,57.2,30.02,NE,47,3.0,3.0,47,0.00,,,0.00,Wunderground v.1.15,2013-07-02 00:30:00,
2013-07-01 19:34:00,79.0,57.0,30.02,NNE,27,3.0,14.0,47,0.00,,,0.00,Wunderground v.1.15,2013-07-02 00:34:00,
2013-07-01 19:36:00,78.9,57.0,30.02,NNE,20,3.0,14.0,47,0.00,,,0.00,Wunderground v.1.15,2013-07-02 00:36:00,
2013-07-01 19:38:00,78.8,56.3,30.02,ENE,59,3.0,14.0,46,0.00,,,0.00,Wunderground v.1.15,2013-07-02 00:38:00,
2013-07-01 19:40:00,78.7,56.2,30.02,ENE,58,3.0,14.0,46,0.00,,,0.00,Wunderground v.1.15,2013-07-02 00:40:00,
2013-07-01 19:42:00,78.6,56.7,30.02,ENE,58,3.0,14.0,47,0.00,,,0.00,Wunderground v.1.15,2013-07-02 00:42:00,
2013-07-01 19:46:00,78.4,57.1,30.02,ENE,63,3.0,14.0,48,0.00,,,0.00,Wunderground v.1.15,2013-07-02 00:46:00,
2013-07-01 19:48:00,78.3,57.0,30.02,NE,52,3.0,14.0,48,0.00,,,0.00,Wunderground v.1.15,2013-07-02 00:48:00,
2013-07-01 19:52:00,78.1,57.4,30.02,NE,56,2.0,14.0,49,0.00,,,0.00,Wunderground v.1.15,2013-07-02 00:52:00,
2013-07-01 19:55:00,77.9,56.6,30.02,NE,39,2.0,14.0,48,0.00,,,0.00,Wunderground v.1.15,2013-07-02 00:55:00,
2013-07-01 19:57:00,77.9,57.8,30.02,NE,46,2.0,14.0,50,0.00,,,0.00,Wunderground v.1.15,2013-07-02 00:57:00,
2013-07-01 19:59:00,77.9,56.6,30.02,NNE,32,2.0,2.0,48,0.00,,,0.00,Wunderground v.1.15,2013-07-02 00:59:00,
2013-07-01 20:02:00,77.9,56.6,30.02,NNE,18,2.0,14.0,48,0.00,,,0.00,Wunderground v.1.15,2013-07-02 01:02:00,
2013-07-01 20:06:00,77.9,56.6,30.02,NE,34,1.0,14.0,48,0.00,,,0.00,Wunderground v.1.15,2013-07-02 01:06:00,
2013-07-01 20:10:00,77.7,57.0,30.02,NNE,22,1.0,14.0,49,0.00,,,0.00,Wunderground v.1.15,2013-07-02 01:10:00,
2013-07-01 20:12:00,77.5,56.8,30.02,NE,42,1.0,14.0,49,0.00,,,0.00,Wunderground v.1.15,2013-07-02 01:12:00,
2013-07-01 20:14:00,77.3,57.2,30.02,NE,41,1.0,14.0,50,0.00,,,0.00,Wunderground v.1.15,2013-07-02 01:14:00,
2013-07-01 20:16:00,77.1,56.5,30.02,NE,39,1.0,14.0,49,0.00,,,0.00,Wunderground v.1.15,2013-07-02 01:16:00,
2013-07-01 20:17:00,76.9,56.3,30.02,NE,44,1.0,14.0,49,0.00,,,0.00,Wunderground v.1.15,2013-07-02 01:17:00,
2013-07-01 20:22:00,76.6,57.1,30.02,NNE,25,1.0,14.0,51,0.00,,,0.00,Wunderground v.1.15,2013-07-02 01:22:00,
2013-07-01 20:24:00,76.4,56.4,30.02,NNE,30,1.0,14.0,50,0.00,,,0.00,Wunderground v.1.15,2013-07-02 01:24:00,
2013-07-01 20:26:00,76.3,56.3,30.02,NE,35,2.0,14.0,50,0.00,,,0.00,Wunderground v.1.15,2013-07-02 01:26:00,
2013-07-01 20:28:00,76.1,56.7,30.03,NE,35,1.0,14.0,51,0.00,,,0.00,Wunderground v.1.15,2013-07-02 01:28:00,
2013-07-01 20:30:00,75.9,57.0,30.02,NE,34,1.0,14.0,52,0.00,,,0.00,Wunderground v.1.15,2013-07-02 01:30:00,
2013-07-01 20:32:00,75.8,56.4,30.02,NE,39,1.0,14.0,51,0.00,,,0.00,Wunderground v.1.15,2013-07-02 01:32:00,
2013-07-01 20:34:00,75.6,56.7,30.02,NE,39,1.0,14.0,52,0.00,,,0.00,Wunderground v.1.15,2013-07-02 01:34:00,
2013-07-01 20:36:00,75.5,56.6,30.02,NE,40,1.0,14.0,52,0.00,,,0.00,Wunderground v.1.15,2013-07-02 01:36:00,
2013-07-01 20:38:00,75.4,57.1,30.02,NE,41,1.0,14.0,53,0.00,,,0.00,Wunderground v.1.15,2013-07-02 01:38:00,
2013-07-01 20:41:00,75.2,56.4,30.02,NE,36,1.0,14.0,52,0.00,,,0.00,Wunderground v.1.15,2013-07-02 01:41:00,
2013-07-01 20:44:00,75.1,56.3,30.02,NE,41,1.0,14.0,52,0.00,,,0.00,Wunderground v.1.15,2013-07-02 01:44:00,
2013-07-01 20:48:00,74.9,56.1,30.02,NE,56,1.0,14.0,52,0.00,,,0.00,Wunderground v.1.15,2013-07-02 01:48:00,
2013-07-01 20:50:00,74.8,56.5,30.02,NE,49,1.0,14.0,53,0.00,,,0.00,Wunderground v.1.15,2013-07-02 01:50:00,
2013-07-01 20:56:00,74.4,56.2,30.02,NE,50,1.0,14.0,53,0.00,,,0.00,Wunderground v.1.15,2013-07-02 01:56:00,
2013-07-01 20:58:00,74.3,56.1,30.02,NE,50,1.0,14.0,53,0.00,,,0.00,Wunderground v.1.15,2013-07-02 01:58:00,
2013-07-01 20:59:00,74.2,56.5,30.02,NE,49,1.0,14.0,54,0.00,,,0.00,Wunderground v.1.15,2013-07-02 01:59:00,
2013-07-01 21:03:00,73.9,56.2,30.02,NE,49,1.0,14.0,54,0.00,,,0.00,Wunderground v.1.15,2013-07-02 02:03:00,
2013-07-01 21:06:00,73.8,56.6,30.02,NE,49,1.0,14.0,55,0.00,,,0.00,Wunderground v.1.15,2013-07-02 02:06:00,
2013-07-01 21:08:00,73.7,56.0,30.02,NE,49,1.0,14.0,54,0.00,,,0.00,Wunderground v.1.15,2013-07-02 02:08:00,
2013-07-01 21:12:00,73.4,56.2,30.02,NE,50,1.0,14.0,55,0.00,,,0.00,Wunderground v.1.15,2013-07-02 02:12:00,
2013-07-01 21:14:00,73.3,56.7,30.02,NE,51,1.0,14.0,56,0.00,,,0.00,Wunderground v.1.15,2013-07-02 02:14:00,
2013-07-01 21:18:00,73.0,56.4,30.02,NE,51,1.0,14.0,56,0.00,,,0.00,Wunderground v.1.15,2013-07-02 02:18:00,
2013-07-01 21:21:00,72.7,56.6,30.02,NE,51,0.0,14.0,57,0.00,,,0.00,Wunderground v.1.15,2013-07-02 02:21:00,
2013-07-01 21:23:00,72.5,56.9,30.02,NE,51,0.0,14.0,58,0.00,,,0.00,Wunderground v.1.15,2013-07-02 02:23:00,
2013-07-01 21:26:00,72.4,57.7,30.02,NE,51,0.0,14.0,60,0.00,,,0.00,Wunderground v.1.15,2013-07-02 02:26:00,
2013-07-01 21:30:00,72.2,59.3,30.02,NE,56,0.0,14.0,64,0.00,,,0.00,Wunderground v.1.15,2013-07-02 02:30:00,
2013-07-01 21:34:00,72.0,59.2,30.02,NE,55,0.0,14.0,64,0.00,,,0.00,Wunderground v.1.15,2013-07-02 02:34:00,
2013-07-01 21:38:00,71.9,57.7,30.02,ENE,58,0.0,14.0,61,0.00,,,0.00,Wunderground v.1.15,2013-07-02 02:38:00,
2013-07-01 21:40:00,72.0,57.8,30.02,ENE,70,1.0,14.0,61,0.00,,,0.00,Wunderground v.1.15,2013-07-02 02:40:00,
2013-07-01 21:42:00,72.2,58.0,30.02,NE,52,1.0,14.0,61,0.00,,,0.00,Wunderground v.1.15,2013-07-02 02:42:00,
2013-07-01 21:45:00,72.4,58.2,30.02,ENE,75,1.0,14.0,61,0.00,,,0.00,Wunderground v.1.15,2013-07-02 02:45:00,
2013-07-01 21:50:00,72.3,58.5,30.03,NE,55,1.0,14.0,62,0.00,,,0.00,Wunderground v.1.15,2013-07-02 02:50:00,
2013-07-01 21:52:00,72.2,58.0,30.02,ENE,68,1.0,14.0,61,0.00,,,0.00,Wunderground v.1.15,2013-07-02 02:52:00,
2013-07-01 21:56:00,72.2,58.0,30.03,ENE,57,1.0,14.0,61,0.00,,,0.00,Wunderground v.1.15,2013-07-02 02:56:00,
2013-07-01 22:00:00,72.4,58.2,30.02,NE,51,1.0,14.0,61,0.00,,,0.00,Wunderground v.1.15,2013-07-02 03:00:00,
2013-07-01 22:02:00,72.6,58.4,30.03,ENE,65,2.0,14.0,61,0.00,,,0.00,Wunderground v.1.15,2013-07-02 03:02:00,
2013-07-01 22:03:00,72.7,58.0,30.02,East,88,2.0,14.0,60,0.00,,,0.00,Wunderground v.1.15,2013-07-02 03:03:00,
2013-07-01 22:05:00,72.7,58.5,30.03,ENE,69,2.0,14.0,61,0.00,,,0.00,Wunderground v.1.15,2013-07-02 03:05:00,
2013-07-01 22:07:00,72.8,58.6,30.02,East,83,2.0,14.0,61,0.00,,,0.00,Wunderground v.1.15,2013-07-02 03:07:00,
2013-07-01 22:10:00,72.8,58.6,30.03,ENE,75,2.0,2.0,61,0.00,,,0.00,Wunderground v.1.15,2013-07-02 03:10:00,
2013-07-01 22:12:00,72.8,58.6,30.03,ENE,62,1.0,14.0,61,0.00,,,0.00,Wunderground v.1.15,2013-07-02 03:12:00,
2013-07-01 22:14:00,72.8,58.6,30.03,ENE,74,1.0,14.0,61,0.00,,,0.00,Wunderground v.1.15,2013-07-02 03:14:00,
2013-07-01 22:16:00,72.7,58.9,30.02,ENE,73,1.0,14.0,62,0.00,,,0.00,Wunderground v.1.15,2013-07-02 03:16:00,
2013-07-01 22:20:00,72.6,58.4,30.02,ENE,72,1.0,1.0,61,0.00,,,0.00,Wunderground v.1.15,2013-07-02 03:20:00,
2013-07-01 22:22:00,72.4,58.2,30.03,ENE,72,0.0,14.0,61,0.00,,,0.00,Wunderground v.1.15,2013-07-02 03:22:00,
2013-07-01 22:24:00,72.2,58.0,30.03,ENE,72,0.0,14.0,61,0.00,,,0.00,Wunderground v.1.15,2013-07-02 03:24:00,
2013-07-01 22:25:00,72.1,57.9,30.03,ENE,72,0.0,14.0,61,0.00,,,0.00,Wunderground v.1.15,2013-07-02 03:25:00,
2013-07-01 22:27:00,71.9,57.7,30.03,ENE,72,0.0,14.0,61,0.00,,,0.00,Wunderground v.1.15,2013-07-02 03:27:00,
2013-07-01 22:30:00,71.7,58.9,30.03,ENE,72,0.0,14.0,64,0.00,,,0.00,Wunderground v.1.15,2013-07-02 03:30:00,
2013-07-01 22:32:00,71.5,59.1,30.03,ENE,72,0.0,14.0,65,0.00,,,0.00,Wunderground v.1.15,2013-07-02 03:32:00,
2013-07-01 22:34:00,71.3,58.9,30.03,ENE,72,0.0,14.0,65,0.00,,,0.00,Wunderground v.1.15,2013-07-02 03:34:00,
2013-07-01 22:40:00,70.6,57.4,30.03,ENE,72,0.0,14.0,63,0.00,,,0.00,Wunderground v.1.15,2013-07-02 03:40:00,
2013-07-01 22:44:00,70.1,57.8,30.03,ENE,72,0.0,14.0,65,0.00,,,0.00,Wunderground v.1.15,2013-07-02 03:44:00,
2013-07-01 22:46:00,70.0,57.7,30.03,ENE,72,0.0,14.0,65,0.00,,,0.00,Wunderground v.1.15,2013-07-02 03:46:00,
2013-07-01 22:48:00,69.8,57.5,30.03,ENE,72,0.0,14.0,65,0.00,,,0.00,Wunderground v.1.15,2013-07-02 03:48:00,
2013-07-01 22:52:00,69.5,57.6,30.03,ENE,72,0.0,14.0,66,0.00,,,0.00,Wunderground v.1.15,2013-07-02 03:52:00,
2013-07-01 22:54:00,69.4,58.0,30.03,ENE,72,0.0,14.0,67,0.00,,,0.00,Wunderground v.1.15,2013-07-02 03:54:00,
2013-07-01 22:58:00,69.0,58.0,30.03,ENE,72,0.0,14.0,68,0.00,,,0.00,Wunderground v.1.15,2013-07-02 03:58:00,
2013-07-01 23:00:00,68.8,58.6,30.03,ENE,72,0.0,14.0,70,0.00,,,0.00,Wunderground v.1.15,2013-07-02 04:00:00,
2013-07-01 23:02:00,68.7,58.5,30.03,ENE,72,0.0,14.0,70,0.00,,,0.00,Wunderground v.1.15,2013-07-02 04:02:00,
2013-07-01 23:04:00,68.6,58.4,30.03,ENE,72,0.0,14.0,70,0.00,,,0.00,Wunderground v.1.15,2013-07-02 04:04:00,
2013-07-01 23:06:00,68.5,58.7,30.03,ENE,72,0.0,14.0,71,0.00,,,0.00,Wunderground v.1.15,2013-07-02 04:06:00,
2013-07-01 23:11:00,68.3,58.5,30.03,ENE,72,0.0,14.0,71,0.00,,,0.00,Wunderground v.1.15,2013-07-02 04:11:00,
2013-07-01 23:14:00,68.1,58.3,30.03,ENE,72,0.0,14.0,71,0.00,,,0.00,Wunderground v.1.15,2013-07-02 04:14:00,
2013-07-01 23:16:00,68.0,58.2,30.03,ENE,72,0.0,14.0,71,0.00,,,0.00,Wunderground v.1.15,2013-07-02 04:16:00,
2013-07-01 23:18:00,68.0,58.2,30.03,ENE,72,0.0,14.0,71,0.00,,,0.00,Wunderground v.1.15,2013-07-02 04:18:00,
2013-07-01 23:22:00,68.4,59.4,30.03,ENE,72,0.0,14.0,73,0.00,,,0.00,Wunderground v.1.15,2013-07-02 04:22:00,
2013-07-01 23:24:00,68.6,60.0,30.03,ENE,72,0.0,14.0,74,0.00,,,0.00,Wunderground v.1.15,2013-07-02 04:24:00,
2013-07-01 23:26:00,68.7,60.1,30.03,ENE,72,0.0,14.0,74,0.00,,,0.00,Wunderground v.1.15,2013-07-02 04:26:00,
2013-07-01 23:28:00,68.6,60.4,30.04,NNE,21,0.0,14.0,75,0.00,,,0.00,Wunderground v.1.15,2013-07-02 04:28:00,
2013-07-01 23:31:00,68.0,57.8,30.03,NE,44,1.0,14.0,70,0.00,,,0.00,Wunderground v.1.15,2013-07-02 04:31:00,
2013-07-01 23:34:00,68.1,57.1,30.03,NE,43,1.0,14.0,68,0.00,,,0.00,Wunderground v.1.15,2013-07-02 04:34:00,
2013-07-01 23:36:00,68.3,56.9,30.03,NE,43,1.0,14.0,67,0.00,,,0.00,Wunderground v.1.15,2013-07-02 04:36:00,
2013-07-01 23:38:00,68.5,56.7,30.03,NE,44,1.0,14.0,66,0.00,,,0.00,Wunderground v.1.15,2013-07-02 04:38:00,
2013-07-01 23:40:00,68.6,56.4,30.03,NE,44,1.0,14.0,65,0.00,,,0.00,Wunderground v.1.15,2013-07-02 04:40:00,
2013-07-01 23:44:00,69.0,56.3,30.03,NE,44,1.0,14.0,64,0.00,,,0.00,Wunderground v.1.15,2013-07-02 04:44:00,
2013-07-01 23:46:00,69.0,55.9,30.03,NE,44,1.0,14.0,63,0.00,,,0.00,Wunderground v.1.15,2013-07-02 04:46:00,
2013-07-01 23:48:00,69.1,56.0,30.03,NE,44,1.0,14.0,63,0.00,,,0.00,Wunderground v.1.15,2013-07-02 04:48:00,
2013-07-01 23:51:00,69.2,56.1,30.03,NE,45,0.0,14.0,63,0.00,,,0.00,Wunderground v.1.15,2013-07-02 04:51:00,
2013-07-01 23:53:00,69.2,56.1,30.03,NE,45,0.0,14.0,63,0.00,,,0.00,Wunderground v.1.15,2013-07-02 04:53:00,
2013-07-01 23:56:00,69.3,56.2,30.03,NE,45,0.0,14.0,63,0.00,,,0.00,Wunderground v.1.15,2013-07-02 04:56:00,